Location: Az?znagar
(16.8373°N, 80.5091°E)
Time: 02:04:29
(UTC+00:00)

Cosmos 921 Rocket - Visible Passes

Search period start: 26 June 2022 00:00
Search period end: 06 July 2022 00:00
Orbit: 571 x 631 km, 75.8° (Epoch: 25 June)

Date Brightness Start Highest point End Pass type
(mag) Time Alt. Az. Time Alt. Az. Time Alt. Az.
26 Jun 5.1 22:25:41 10° SSE 22:29:24 26° E 22:33:09 10° NE visible
27 Jun 3.8 22:37:47 17° S 22:41:00 53° E 22:45:23 10° NNE visible
28 Jun 3.0 22:50:07 26° SSW 22:52:39 74° WNW 22:57:08 10° N visible
29 Jun 6.0 21:25:55 10° ESE 21:26:29 10° E 21:27:04 10° E visible
29 Jun 3.8 23:02:24 24° WSW 23:04:20 35° WNW 23:08:27 10° N visible
30 Jun 5.2 21:37:48 21° ESE 21:38:02 21° E 21:41:24 10° NE visible
30 Jun 4.7 23:14:37 16° W 23:16:03 18° WNW 23:19:11 10° NNW visible
01 Jul 4.2 21:49:58 41° E 21:49:58 41° E 21:53:51 10° NNE visible
02 Jul 3.5 22:02:06 58° NNE 22:02:06 58° NNE 22:05:44 10° NNE visible
03 Jul 4.1 22:14:09 35° NW 22:14:09 35° NW 22:17:11 10° N visible
04 Jul 6.2 20:49:21 11° ENE 20:49:21 11° ENE 20:49:30 10° ENE visible
04 Jul 4.9 22:26:10 19° NW 22:26:10 19° NW 22:28:10 10° NNW visible
05 Jul 5.9 21:01:20 15° NE 21:01:20 15° NE 21:02:14 10° NE visible
